World > North America > United States > Ohio

South Amherst, Ohio Regional Weather

Lat: 41.35N, Lon: 82.24W
Wx Zone: OHZ010Web Search

Helpful Tip: Type the letters wx in the search engine next time you need to find us.

Feedback


°F Click to change South Amherst hourly weather to Imperial units.Click to change South Amherst hourly weather to Metric units. °C
South Amherst Weather Map
UTC Time: 5/18/2021, 01:37
Your Time:

South Amherst, OH Regional Weather

Expires:202105180200;;284652
ASUS41 KCLE 180112
RWRCLE
OHIO REGIONAL WEATHER ROUNDUP
NATIONAL WEATHER SERVICE WILMINGTON, OH
900 PM EDT MON MAY 17 2021

NOTE: "FAIR" INDICATES FEW OR NO CLOUDS BELOW 12,000 FEET WITH NO
SIGNIFICANT WEATHER AND/OR OBSTRUCTIONS TO VISIBILITY.


OHZ009>014-019>023-028>033-038-089-180200-
   NORTHEAST OHIO
  
CITY           SKY/WX    TMP DP  RH WIND       PRES   REMARKS
CLE-HOPKINS    MOCLDY    64  44  48 N3        30.24S                  
CLE-LAKEFRONT  FAIR      68  46  45 E6        30.25R                  
CUY CO. ARPT   MOCLDY    64  45  48 E5        30.26S                  
LORAIN-ELYRIA  FAIR      64  46  52 E6        30.26R                  
ASHTABULA      FAIR      59  45  59 CALM      30.28R                  
AKRON-CANTON   FAIR      66  43  43 E3        30.26S                  
WOOSTER        FAIR      62  51  67 CALM      30.26S                  
MANSFIELD      FAIR      66  46  48 S5        30.26R                  
YOUNGSTOWN     CLOUDY    63  47  55 CALM      30.28R                  
$$
 

SKY/WX - Weather  TMP - Temperature  DP - Dew Point  RH - Relative Humidity
WIND - Wind Direction/Speed PRES - Barometric Pressure VSB - Visibility
WCI - Wind Chill Index E13G22 Wind - East Wind 13 mph/Gusts of 22 mph